Погода Александровский Завод

Погода Александровский Завод : погода сейчас, прогноз погоды и архив. Всё, что Вы хотите узнать о погоде Александровский Завод!

Хотите узнать прогноз погоды Александровский Завод? Тогда Вам сюда: Погода Александровский Завод

Поиск расширенной информации на нашем сайте:

Другие новости

Новости СМИ2

Главная страница сайта

Новости сайта

02.10.2013

Напоминаем, что на нашем новом сайте вы можете получить высокодетализированные прогнозы погоды по пунктам России, СНГ и мира (включающие важные для авиации метеовеличины, такие как направление и скорость ветра, видимость, явления погоды, количество и форма облачности, нижняя и верхняя граница облачности), а также ознакомиться с разнообразными материалами по авиационной метеорологии и подборкой полезных ссылок на эту тему.

Сайт Метеоцентр.Азия посвящён разработке технологий оптимизации авиаметеорологического обслуживания, включая проектирование и перспективное создание нескольких автоматизированных авиаметеорологических систем:
- система выпуска высокодетальных прогностических карт явлений погоды для нижнего воздушного пространства по России и ближнему зарубежью;
- система верификации прогнозов TAF (выпускаемых синоптиками официальных АМСГ РФ и ближнего зарубежья) и AUTOTAF (выпускаемых сайтом Метеоцентр.Азия) - выявление ошибок, онлайн-сопоставление с фактической погодой METAR, автоматическое внесение коррективов в прогнозы при резком отклонении фактической погоды от прогноза, подсчёт оправдываемости прогнозов по элементам и в целом;
- система обработки, анализа и отображения авиаметеорологической информации для применения провайдерами метеорологической информации.

Рекомендуем: Смотрите информацию обивка вагонкой цена на нашем сайте.

Погода Александровский Завод - сегодня

Время (UTC), дата Ветер
(°,м/с) 
Видим.   Явления Облачность Т
(°С)
Тd
(°С)
f(%) Тe
(°С)
Pmin
(гПа)
dP
(гПа)
Po
(мм)
O2
(г/м3)
Тmin Tmax R s Состояние
почвы
12 21.04.17 020 (С) 20000 м    10/0 средняя 
[As trans]
+6.3 -1.8 56 +5  1001.2  0.1  681  268    +14.2       
15 21.04.17 020 (С) 20000 м    10/0 средняя 
[As trans]
-0.2 -2 88 -2  1001.5  -1.9  680  274           
18 21.04.17 330 (СЗ) 4000 м  слаб. снег  10/0 средняя 
[As trans]
-2.8 -3.8 93 -4  998.7  -3.4  677  276           
21 21.04.17 020 (С) 7{10}  16000 м  слаб. снег  10/0 средняя 
[As op]
-0.4 -0.7 98 -4  994.5  -2.9  675  272           
00 22.04.17 320 (СЗ) 5{10}  17000 м  слаб. снег  10/0 средняя 
[As op]
-1.5 -2.7 92 -5  997.3  677  274  -3.1    11  равномерный
сухой снег
100% 
03 22.04.17 300 (СЗ) 7-12{14}  14000 м  снег  10/0 средняя 
[As op]
-2.1 -3.4 91 -6  998.7  1.1  677  275           
06 22.04.17 300 (СЗ) 7-13{14}  17000 м  слаб. снег  10/0 средняя 
[As op]
-1.6 -3.8 85 -6  999.7  1.1  678  275           
09 22.04.17 300 (СЗ) 6-11{14}  18000 м  слаб. снег  10/0 средняя 
[As op]
-1.3 -3.8 83 -5  1000.5  0.8  679  275           
12 22.04.17 320 (СЗ) 20000 м    10/0 средняя 
[As op]
-1.6 -2.8 92 -6  1001.7  680  276    -6.3  0.7     
15 22.04.17 340 (С) 20000 м    10/0 средняя 
[As op]
-2.4 -3.4 93 -6  1001.3  0.7  680  276           
18 22.04.17 290 (З) 20000 м    10/0 средняя 
[As op]
-3.8 -7.5 75 -8  1001.3  -0.4  679  278           
21 22.04.17 270 (З) 17000 м  слаб. снег{ливн. осадки}  10/0 средняя 
[As op]
-3 -7.5 71 -4  998.4  -0.7  678  277           
00 23.04.17 270 (З) 15000 м  слаб. снег  10/0 средняя 
[As op]
-2.9 -5.5 82 -5  1001.5  679  277  -4.1    0.6  10  равномерный
сухой снег
100% 
03 23.04.17 290 (З) 20000 м  {снег}  10/0 средняя 
[As trans]
-1.3 -5.5 73 -4  1001.7  0.7  680  276           
06 23.04.17 020 (С) 20000 м  {снег}  9/0 средняя 
[As trans]
+1.2 -4.7 65 +1  1002.6  1.6  681  274           
09 23.04.17 050 (СВ) 20000 м    10/0 средняя 
[As trans]
-0.1 -2 87 +1  1005  1.8  682  275           
12 23.04.17 тихо ()   20000 м  {снег}  10/0 средняя 
[As trans]
-2.3 -2.9 96 -2  1008.7  2.6  684  278    +1.7     
15 23.04.17 040 (СВ) 20000 м    10/0 средняя 
[As trans]
-2.3 -3.2 94 -4  1010.4  1.5  685  279           
18 23.04.17 120 (ЮВ) 20000 м    8/0 средняя 
[As trans]
-5.8 -6.2 97 -5  1013.5  1.6  687  283           
21 23.04.17 310 (СЗ) 20000 м    3/0 средняя 
[Ac lent]
-8 -8.5 96 -8  1016.4  1.8  688  286           
00 24.04.17 020 (С) 20000 м    3/0 средняя 
[Ac lent]
-0.9 -4.6 76 -3  1015.8  689  279  -9.4      равномерный
сухой снег
100% 
03 24.04.17 030 (СВ) 20000 м    4/4 600 м 
[Cu med, cong]
+3.5 -6.2 49 +1  1015.7  -1.5  690  275           
06 24.04.17 040 (СВ) 20000 м    3/3 600 м 
[Cu med, cong]
+5.7 -11.1 29 +5  1015.7  0.6  691  274           
09 24.04.17 360 (С) 5{11}  20000 м    3/3 600 м 
[Cu med, cong]
+4.7 -3.3 56 +3  1016.5  0.5  691  274           
12 24.04.17 060 (СВ) 4{10}  20000 м    4/4 600 м 
[Sc diur, vesp]
-0.1 -1.9 88 -3  1020.3  1.9  693  279    +6.2       
Время (UTC), дата Ветер
(°,м/с) 
Видим.   Явления Облачность Т
(°С)
Тd
(°С)
f(%) Тe
(°С)
Pmin
(гПа)
dP
(гПа)
Po
(мм)
O2
(г/м3)
Тmin Tmax R s Состояние
почвы

Для получения пояснительной информации подведите курсор к названию столбца.

ПОГОДА Александровский Завод - архив

Всё, что Вы хотите узнать о погоде Александровский Завод - удобно и подробно!

Выберите нужную дату (начиная с 1 января 2015* года) и нажмите кнопку "Найти".
Будут отображены архивные сводки погоды по пункту Александровский Завод, начиная с указанной даты.


Отображать данные в формате CSV (для использования в таблицах Excel)


Внимание! Наш архив погоды предназначен исключительно для личного некоммерческого использования в познавательных целях. Если Вам необходимы официальные справки о состоянии погоды (для производственных, юридических, коммерческих и т.п. целей), обращайтесь в органы Росгидромета.

*Примечание: данная дата относится к архиву по метеостанциям СССР (Россия, СНГ, Балтия).
Архив по метеостанциям Зарубежной Европы и Азии (кроме Китая) хранится 10 дней, по другим регионам земного шара (Китай, Африка, Америка, Австралия, Океания) - 1 день.

Александровский Завод - район местоположения метеостанции


Название, широта, долгота, высота метеостанции:
Александровский Завод 50.9°ш. 117.9°д. 807 м над ур. моря [Российская Федерация]

Дополнительная информация

В oтличие oт бoльшинства пoгoдных сайтoв мы публикуем пoдрoбную метеoинфoрмацию в детальнoм прoфессиoнальнoм фoрмате.

Характеристики температуры и влажнoсти вoздуха измеряются на высoте 2 м в тени вдали oт зданий и деревьев.
Скoрoсть ветра измеряется на высoте 10 м (на урoвне рoста челoвека скoрoсть ветра ниже в 1.5-2 раза). Если метеoстанция нахoдится в гoрoде или в лесу, тo скoрoсть ветра занижена на 2-4 м/с пo сравнению с oткрытым местoм. Скoрoсть ветра над акватoриями крупных рек и oзёр, а также на вершинах хoлмoв на 2-5 м/с выше, чем в oбычных услoвиях.
Атмoсфернoе давление в разных тoчках местнoсти мoжет значительнo oтличаться oт давления на метеoстанции, в зависимoсти oт услoвий рельефа (при пoдъёме на 10 м давление пoнижается примернo на 1 мм рт.ст.).